Total_Precipitation_Accumulation
0.67 0.82 0.94 1.15 1.35 1.49 1.65 1.66 1.76 1.86 1.93 1.96 1.82 1.61 1.46 1.40 1.33 1.23 1.21 1.15 1.07 0.98 0.88 0.80 0.76 0.70 0.64 0.58 0.55 0.54 0.50 0.46 0.45 0.45 0.35 0.26 0.22 0.18 0.16 0.16 0.15 0.13 0.11
0.57 0.66 0.79 0.98 1.15 1.26 1.36 1.49 1.57 1.67 1.77 1.80 1.76 1.73 1.77 1.65 1.52 1.39 1.30 1.25 1.23 1.16 1.05 0.97 0.91 0.84 0.78 0.71 0.67 0.69 0.65 0.60 0.60 0.62 0.61 0.47 0.32 0.22 0.20 0.20 0.19 0.18 0.17
0.53 0.56 0.64 0.83 0.95 1.04 1.14 1.24 1.38 1.47 1.50 1.67 1.82 1.85 1.87 1.79 1.57 1.36 1.22 1.27 1.37 1.38 1.25 1.15 1.12 1.06 1.02 0.94 0.88 0.86 0.84 0.78 0.75 0.78 0.87 0.73 0.50 0.33 0.25 0.23 0.24 0.24 0.24
0.58 0.61 0.64 0.75 0.80 0.85 0.99 1.10 1.22 1.33 1.36 1.51 1.58 1.54 1.42 1.37 1.30 1.26 1.28 1.34 1.39 1.44 1.42 1.38 1.31 1.25 1.22 1.15 1.17 1.19 1.12 1.05 0.91 0.84 0.81 0.80 0.69 0.63 0.46 0.30 0.27 0.26 0.24
0.54 0.61 0.63 0.67 0.71 0.71 0.77 0.91 1.09 1.17 1.21 1.28 1.36 1.44 1.39 1.33 1.33 1.32 1.29 1.24 1.23 1.32 1.40 1.43 1.41 1.28 1.19 1.15 1.17 1.19 1.22 1.16 1.09 1.01 0.96 0.93 0.84 0.76 0.71 0.49 0.32 0.30 0.28
0.54 0.56 0.53 0.56 0.66 0.64 0.61 0.72 0.86 1.06 1.14 1.18 1.24 1.31 1.29 1.23 1.21 1.25 1.26 1.27 1.20 1.15 1.18 1.27 1.27 1.28 1.25 1.19 1.20 1.27 1.31 1.30 1.26 1.18 1.09 1.03 0.96 0.84 0.85 0.78 0.56 0.47 0.41
0.50 0.52 0.52 0.58 0.62 0.61 0.57 0.58 0.67 0.85 1.00 1.03 1.04 1.10 1.20 1.20 1.13 1.14 1.19 1.21 1.17 1.10 1.11 1.18 1.20 1.22 1.23 1.25 1.26 1.27 1.23 1.23 1.22 1.18 1.13 1.06 0.97 0.91 0.97 1.02 0.89 0.75 0.61
0.43 0.46 0.49 0.51 0.49 0.49 0.52 0.55 0.59 0.66 0.73 0.78 0.84 0.92 1.01 1.08 1.05 1.01 1.04 1.03 0.99 1.01 1.05 1.10 1.13 1.16 1.19 1.21 1.22 1.20 1.16 1.14 1.12 1.10 1.07 1.02 0.95 0.92 0.96 1.04 1.14 1.10 0.89
0.32 0.34 0.36 0.37 0.34 0.35 0.41 0.46 0.48 0.51 0.57 0.60 0.64 0.75 0.79 0.89 0.98 0.99 0.99 1.02 0.98 0.94 0.93 0.93 0.95 0.99 1.02 1.04 1.09 1.10 1.05 1.02 0.99 0.97 0.96 0.93 0.87 0.85 0.88 0.96 1.12 1.32 1.26
0.26 0.28 0.31 0.30 0.27 0.27 0.28 0.30 0.36 0.47 0.52 0.49 0.52 0.60 0.67 0.73 0.80 0.87 0.90 0.90 0.87 0.82 0.80 0.81 0.78 0.79 0.83 0.89 0.95 0.96 0.96 0.96 0.92 0.90 0.90 0.87 0.84 0.85 0.88 0.95 1.03 1.15 1.26
0.23 0.24 0.23 0.23 0.23 0.22 0.22 0.25 0.30 0.37 0.42 0.43 0.45 0.48 0.53 0.58 0.62 0.67 0.71 0.71 0.72 0.72 0.71 0.72 0.74 0.72 0.71 0.74 0.81 0.86 0.89 0.90 0.88 0.84 0.82 0.81 0.80 0.83 0.84 0.90 0.95 1.00 1.08
0.24 0.21 0.18 0.17 0.19 0.19 0.21 0.22 0.27 0.32 0.35 0.37 0.40 0.43 0.45 0.46 0.50 0.56 0.57 0.57 0.59 0.60 0.58 0.57 0.59 0.61 0.61 0.62 0.67 0.73 0.76 0.78 0.81 0.83 0.85 0.85 0.86 0.89 0.92 0.95 0.95 0.94 0.94
0.25 0.23 0.19 0.16 0.17 0.19 0.19 0.19 0.24 0.28 0.31 0.33 0.34 0.35 0.37 0.38 0.40 0.45 0.48 0.51 0.57 0.61 0.62 0.57 0.53 0.51 0.51 0.55 0.58 0.62 0.68 0.72 0.74 0.77 0.83 0.87 0.92 0.97 0.96 0.96 0.94 0.90 0.87
0.26 0.26 0.27 0.22 0.19 0.19 0.17 0.16 0.19 0.23 0.27 0.28 0.29 0.29 0.32 0.35 0.35 0.36 0.38 0.43 0.48 0.54 0.55 0.56 0.55 0.53 0.50 0.53 0.57 0.64 0.69 0.75 0.79 0.80 0.82 0.85 0.87 0.87 0.87 0.84 0.82 0.83 0.84
0.23 0.24 0.25 0.25 0.22 0.19 0.18 0.16 0.16 0.19 0.22 0.25 0.25 0.27 0.30 0.32 0.34 0.35 0.36 0.38 0.40 0.48 0.52 0.53 0.55 0.56 0.55 0.58 0.63 0.67 0.73 0.78 0.84 0.87 0.86 0.83 0.80 0.75 0.73 0.74 0.73 0.73 0.79
0.20 0.22 0.21 0.23 0.21 0.21 0.21 0.20 0.19 0.19 0.21 0.23 0.23 0.24 0.27 0.29 0.32 0.35 0.36 0.36 0.38 0.45 0.51 0.57 0.64 0.68 0.72 0.85 0.86 0.80 0.78 0.80 0.79 0.77 0.74 0.72 0.72 0.70 0.72 0.73 0.72 0.77 0.86
0.13 0.16 0.18 0.20 0.19 0.19 0.18 0.17 0.18 0.18 0.19 0.21 0.22 0.23 0.26 0.30 0.32 0.35 0.39 0.44 0.49 0.56 0.63 0.67 0.78 0.82 0.86 0.90 0.82 0.79 0.73 0.75 0.74 0.69 0.64 0.60 0.56 0.57 0.54 0.61 0.68 0.70 0.75
0.08 0.09 0.12 0.13 0.13 0.13 0.13 0.15 0.14 0.15 0.17 0.21 0.26 0.27 0.28 0.37 0.43 0.43 0.46 0.54 0.61 0.68 0.74 0.74 0.77 0.80 0.81 0.80 0.73 0.71 0.61 0.57 0.56 0.53 0.50 0.46 0.45 0.46 0.50 0.56 0.64 0.57 0.54
0.09 0.08 0.09 0.11 0.12 0.12 0.13 0.16 0.16 0.17 0.18 0.21 0.28 0.32 0.33 0.42 0.52 0.51 0.53 0.58 0.63 0.70 0.72 0.71 0.67 0.62 0.60 0.61 0.55 0.53 0.48 0.46 0.43 0.42 0.43 0.45 0.42 0.48 0.61 0.64 0.62 0.50 0.42
0.11 0.11 0.12 0.13 0.15 0.17 0.18 0.21 0.23 0.27 0.30 0.31 0.36 0.42 0.48 0.56 0.59 0.58 0.57 0.54 0.54 0.56 0.54 0.50 0.46 0.43 0.41 0.42 0.42 0.41 0.36 0.37 0.37 0.39 0.42 0.46 0.45 0.53 0.64 0.59 0.56 0.48 0.41
0.15 0.15 0.16 0.18 0.20 0.20 0.22 0.25 0.28 0.37 0.42 0.44 0.47 0.49 0.53 0.56 0.55 0.53 0.50 0.44 0.39 0.38 0.37 0.35 0.34 0.33 0.33 0.34 0.34 0.36 0.34 0.33 0.38 0.40 0.38 0.41 0.55 0.62 0.61 0.54 0.44 0.47 0.52
0.13 0.16 0.18 0.21 0.23 0.26 0.31 0.32 0.35 0.40 0.43 0.43 0.44 0.43 0.42 0.42 0.43 0.42 0.40 0.35 0.32 0.30 0.29 0.30 0.32 0.33 0.34 0.35 0.36 0.40 0.44 0.47 0.42 0.36 0.33 0.40 0.57 0.57 0.50 0.44 0.46 0.55 0.51
0.12 0.15 0.20 0.24 0.27 0.29 0.31 0.33 0.33 0.33 0.34 0.34 0.34 0.31 0.29 0.28 0.28 0.28 0.29 0.29 0.27 0.25 0.28 0.31 0.33 0.35 0.36 0.40 0.43 0.44 0.52 0.55 0.47 0.43 0.49 0.53 0.50 0.43 0.40 0.41 0.44 0.45 0.42
0.10 0.12 0.14 0.16 0.19 0.21 0.22 0.24 0.23 0.22 0.22 0.21 0.22 0.22 0.20 0.20 0.21 0.21 0.23 0.24 0.24 0.24 0.24 0.28 0.34 0.35 0.33 0.35 0.41 0.45 0.49 0.52 0.51 0.52 0.54 0.47 0.40 0.36 0.36 0.39 0.40 0.39 0.40
0.09 0.09 0.09 0.10 0.11 0.12 0.13 0.14 0.14 0.15 0.16 0.16 0.16 0.17 0.19 0.19 0.21 0.22 0.24 0.27 0.27 0.30 0.30 0.28 0.30 0.33 0.33 0.36 0.47 0.50 0.49 0.55 0.60 0.57 0.43 0.35 0.33 0.34 0.33 0.32 0.33 0.36 0.40
0.08 0.08 0.08 0.09 0.12 0.12 0.11 0.11 0.11 0.12 0.14 0.16 0.17 0.18 0.19 0.19 0.20 0.22 0.24 0.28 0.29 0.31 0.32 0.33 0.32 0.30 0.33 0.41 0.46 0.50 0.55 0.59 0.58 0.48 0.39 0.37 0.34 0.33 0.32 0.30 0.32 0.32 0.36